www.pogodaiklimat.ru

Погода и климат >> Архив погоды >> Россия >> Оренбургская область >> Орск


АРХИВ ПОГОДЫ в Орске

Время (UTC), дата Ветер
(напр.,м/с)
 
Видим.   Явления Облачность Т
(С)
Тd
(С)
f
(%)
Тe
(С)
Тes
(С)
Комфортность P
(гПа)
Po
(гПа)
Тmin
(С)
Tmax
(С)
R
(мм)
R24
(мм)
S
(см)
21 14.07 ЮВ 6 10 км 8/0
[Ac trans]
+26.6 +4.9 25 +26 +26 жарко 998.0 966.3
00 15.07 ЮВ 10-13
{16}
10 км 8/8 1500 м
[Cb cap]
+28.2 -1.6 14 +25 +25 комфорт 995.0 963.6
03 15.07 З 7-13
{17}
10 км 3/0
[Ac trans]
+22.4 +16.6 70 +27 +28 душно 997.2 965.2 +22.3
06 15.07 ЮЗ 10-16
{16}
10 км 3/0
[Ac trans]
+26.2 +12.1 41 +28 +28 жарко 998.8 967.1
09 15.07 З 9-16
{16}
10 км 6/6 1500 м
[Cu hum]
+25.3 +11.4 42 +27 +27 жарко 1001.7 969.8
12 15.07 З 8-15
{16}
10 км 3/3 1500 м
[Cu hum]
+25.4 +9.3 36 +26 +27 жарко 1003.7 971.7
15 15.07 З 9-14
{15}
10 км ясно +23.2 +7.6 37 +24 +24 комфорт 1005.5 973.2 +27.0
18 15.07 СЗ 6 10 км ясно +18.8 +8.6 51 +19 +19 прохладно 1007.9 975.1
21 15.07 З 4 10 км ясно +15.8 +9.6 67 +15 +15 прохладно 1009.7 976.4
00 16.07 З 4 10 км 3/0
[Ci fib]
+14.2 +9.3 72 +13 +13 прохладно 1010.9 977.4
03 16.07 З 5 10 км ясно +19.5 +10.0 54 +20 +22 по сезону 1011.7 978.8 +13.8
06 16.07 СЗ 7-11
{11}
10 км ясно +24.8 +7.4 33 +25 +29 комфорт 1011.0 978.7
09 16.07 СЗ 5
{13}
10 км 3/0
[Ci fib]
+27.3 +2.4 20 +26 +34 жарко 1010.6 978.6
12 16.07 СЗ 4
{10}
10 км 3/0
[Ci fib]
+28.5 +0.1 16 +26 +31 жарко 1010.3 978.3
15 16.07 С 3 10 км 6/0
[Ci fib]
+27.7 +3.1 21 +26 +26 жарко 1010.5 978.5 +29.2
18 16.07 З 3 10 км 6/0
[Ci fib]
+21.6 +6.3 37 +22 +22 комфорт 1012.2 979.5
21 16.07 СЗ 2 10 км 6/0
[Ci fib]
+18.8 +7.8 49 +20 +20 тепло 1013.2 980.2
00 17.07 С 2 10 км 6/0
[Ac trans]
+16.2 +8.5 60 +16 +16 по сезону 1014.0 980.7
03 17.07 СВ 2 10 км 3/0
[Ci fib]
+20.0 +8.6 48 +22 +25 комфорт 1013.9 981.0 +15.9
06 17.07 В 4 10 км 6/0
[Ci fib]
+28.9 +6.0 23 +28 +36 жарко 1011.8 979.9
09 17.07 Ю 4 10 км 6/0
[Ci fib]
+31.8 +1.5 14 +29 +38 жарко 1010.7 979.1
12 17.07 Ю 3 10 км 8/0
[Ac trans Ci fib]
+33.3 +1.0 13 +30 +34 жарко 1009.1 977.7
15 17.07 ЮВ 3 10 км 8/3 1500 м
[Cb cap Ac cuf Ci fib]
+30.3 +2.4 17 +28 +28 жарко 1009.1 977.4 +33.5
18 17.07 Ю 2 10 км 6/0
[Ac trans]
+26.2 +3.9 24 +25 +25 комфорт 1009.3 977.2
21 17.07 Ю 4 10 км 6/0
[Ac trans]
+19.7 +3.9 35 +20 +20 тепло 1010.0 977.2
00 18.07 Ю 5 10 км 3/0
[Ac trans]
+18.7 +2.6 34 +19 +19 тепло 1010.3 977.3
03 18.07 Ю 9-12
{12}
10 км 6/0
[Ac trans]
+24.8 +3.8 26 +24 +24 комфорт 1010.0 977.7 +16.2
06 18.07 Ю 9-12
{14}
10 км 8/0
[Ac trans Ci fib]
+31.7 +1.1 14 +29 +30 жарко 1008.9 977.4
09 18.07 Ю 6-11
{12}
10 км 8/0
[Ac trans Ci fib]
+36.3 +0.3 10 +33 +36 жарко 1007.2 976.2
12 18.07 Ю 6
{14}
10 км 9/0
[Ac As]
+35.6 -0.4 10 +32 +33 жарко 1006.5 975.4
15 18.07 Ю 6 10 км 9/0
[Ac As]
+34.0 -0.3 11 +30 +31 жарко 1006.7 975.5 +37.4
18 18.07 Ю 5 10 км 8/0
[Ac trans Ci fib]
+26.4 +0.8 19 +25 +25 комфорт 1007.9 975.8
21 18.07 Ю 4 10 км 8/0
[Ci fib]
+22.2 +4.0 30 +22 +22 комфорт 1008.4 975.9
00 19.07 Ю 6 10 км 5/0
[Ac trans]
+24.2 +3.9 27 +24 +24 комфорт 1008.9 976.6
03 19.07 Ю 8-12
{12}
10 км 5/0
[Ac trans]
+28.6 -0.9 15 +26 +27 жарко 1008.7 976.8 +21.8
06 19.07 Ю 7-11
{13}
10 км 9/0
[Ac trans]
+33.9 -0.7 11 +30 +32 жарко 1007.8 976.5
09 19.07 Ю 6
{12}
10 км 10/0
[Ac und]
+33.6 +0.4 12 +30 +32 жарко 1007.6 976.3
12 19.07 ЮВ 4
{12}
10 км 10/0
[Ac und]
+33.0 +2.2 14 +30 +31 жарко 1007.6 976.3
15 19.07 СВ 7
{10}
10 км 9/0
[Ac As]
+31.9 +4.1 17 +29 +29 жарко 1005.3 974.0 +37.3
18 19.07 В 6-11
{11}
10 км 6/6 1500 м
[Sc diur, vesp]
+28.8 +5.0 22 +27 +27 жарко 1004.6 973.0
21 19.07 В 5
{11}
10 км 4/0
[Ac trans]
+24.3 +4.1 27 +24 +24 комфорт 1004.3 972.2
00 20.07 В 4
{11}
10 км 4/0
[Ac trans]
+25.5 +3.0 23 +24 +24 комфорт 1003.5 971.5
03 20.07 В 5 10 км 3/0
[Ci fib]
+27.4 +1.8 19 +26 +27 жарко 1002.8 971.0 +22.7
06 20.07 ЮВ 3 10 км дым ясно +31.6 +9.8 26 +31 +42 жарко 1002.2 970.9
09 20.07 ЮЗ 3 4000 м дым ясно +36.6 +4.6 14 +34 +47 очень
жарко
1001.0 970.2
12 20.07 З 4 4000 м дым ясно +37.6 +3.9 12 +34 +39 очень
жарко
1000.3 969.6
15 20.07 З 10-15
{15}
10 км ясно +34.4 +11.0 24 +34 +34 очень
жарко
1000.5 969.6 +38.0
18 20.07 З 7-11
{16}
10 км ясно +27.9 +15.2 46 +31 +31 душно 1003.1 971.5
21 20.07 З 8-13
{13}
10 км 4/0
[Ci fib]
+23.6 +15.6 61 +27 +27 жарко 1004.1 972.0
00 21.07 З 7-12
{15}
10 км 4/0
[Ci fib]
+21.5 +14.3 64 +24 +24 комфорт 1005.9 973.5
03 21.07 СЗ 10-14
{16}
10 км 3/0
[Ci fib]
+24.1 +13.7 52 +26 +27 жарко 1007.9 975.7 +21.1
06 21.07 С 7-11
{15}
10 км 5/5 1500 м
[Cu hum]
+28.3 +11.3 35 +29 +31 жарко 1008.5 976.7
09 21.07 СЗ 9-13
{16}
10 км 5/5 1500 м
[Cu hum]
+30.5 +7.9 24 +29 +30 жарко 1008.6 977.0
12 21.07 СЗ 8-13
{14}
10 км 4/4 1500 м
[Cu hum]
+31.2 +6.1 21 +30 +30 жарко 1009.1 977.6
15 21.07 СЗ 8-11
{13}
10 км 3/0
[Ac trans]
+28.0 +3.9 21 +26 +27 жарко 1010.5 978.6 +31.6

 

Местоположение метеостанции Орск (Оренбургская область, Россия): широта 51.07 долгота 58.60 высота над уровнем моря 285 м.

В архиве по умолчанию представлена погода в Орске за последнюю неделю. Архивные данные за месяц целиком и за предыдущие месяцы, начиная с января 2011 года, Вы можете получить, выбрав интересующий диапазон дат из раскрывающегося списка и нажав кнопку "Ввод!".


*Определитесь, кто Вы:
робот инопланетянин человек

Внимание! Время в таблицах - всемирное. Для получения местного времени необходимо прибавить поправку, которая равна 5 ч.

Смотрите также архив погоды в соседних городах и на ближайших метеорологических станциях:

Погода в Степном (Актюбинская область, Казахстан) (39 км)
Погода в Кос-Истеке (Актюбинская область, Казахстан) (62 км)
Погода в Домбаровском (Оренбургская область, Россия) (76 км)
Погода в Энергетике (Оренбургская область, Россия) (79 км)
Погода в Акъяре (Башкирия, Россия) (94 км)
Погода в Кувандыке (Оренбургская область, Россия) (96 км)
Погода в Акжаре (Актюбинская область, Казахстан) (103 км)
Погода в Родниковке (Актюбинская область, Казахстан) (111 км)
Погода в Айдырля (Оренбургская область, Россия) (132 км)
Погода в Актобе (Актюбинская область, Казахстан) (135 км)

Пояснения к столбцам:

Ветер - указаны скорость ветра в м/с - средняя за 10 мин, порывы в срок и между сроками (в фигурных скобках) и направление, откуда дует ветер: С - северный, СВ - северо-восточный, В - восточный, ЮВ - юго-восточный, Ю - южный, ЮЗ - юго-западный, З - западный, СЗ - северо-западный.
Видимость - горизонтальная дальность видимости в метрах или километрах. При видимости от 1 до 10 км при отсутствии осадков обычно наблюдается дымка, при ухудшении видимости до 1 км и менее - туман. В сухую погоду видимость может ухудшаться дымом, пылью или мглою.
Явления - указаны атмосферные явления, наблюдавшиеся в срок или в последний час перед сроком; фигурными скобками обозначены явления, наблюдавшиеся между сроками (за 1-3 часа до срока); квадратными скобками обозначены град или гололедные отложения с указанием их диаметра в мм.
Облачность - указаны через наклонную черту общая и нижняя облачность в баллах и высота нижней границы облаков в метрах; квадратными скобками обозначены формы облаков: Ci - перистые, Cs - перисто-слоистые, Cc - перисто-кучевые, Ac - высококучевые, As - высокослоистые, Sc - слоисто-кучевые, Ns - слоисто-дождевые, Cu - кучевые, Cb - кучево-дождевые. Подробнее классификацию облаков см. в Атласе облаков (PDF).
T - Температура воздуха - температура, измеренная на высоте 2 м над землей.
Td - Температура точки росы - температура, при понижении до которой содержащийся в воздухе водяной пар достигнет насыщения.
f - Относительная влажность воздуха - влажноcть воздуха, измеренная на высоте 2 м над землей.
Te - Эффективная температура - температура, которую ощущает одетый по сезону человек в тени. Характеристика душности погоды. При расчете учитывается влияние влажности воздуха и скорости ветра на теплоощущения человека.
Tes - Эффективная температура на солнце - температура, которую ощущает человек, с поправкой на солнечный нагрев. Характеристика знойности погоды. Зависит от высоты солнца над горизонтом, облачности и скорости ветра. Ночью, в пасмурную погоду, а также при ветре 12 м/с и более поправка равна нулю.
P - Атмосферное давление - приведенное к уровню моря атмосферное давление.
Po - Атмосферное давление - измеренное на уровне метеостанции атмосферное давление.
Tmin - Минимальная температура - минимум температуры воздуха на высоте 2 м над землей.
Tmax - Максимальная температура - максимум температуры воздуха на высоте 2 м над землей.
R - Количество осадков - Количество выпавших осадков за период времени, мм. При наведении курсора мыши на число - период времени, за который выпало указанное количество осадков.
R24 - Количество осадков - Количество выпавших осадков за 24 часа, мм.
S - Снежный покров - Высота снежного покрова, см. При наведении курсора мыши на число - состояние снежного покрова и степень покрытия местности в баллах.